CAPE
2004 1910 2022 1945 1743 1789 1758 1188 1299 1134 857 1020 784 917 729 676 892 1250 685 509 955 1057 1001 874 865 839 853 604 416 934 521 673 532 338 789 1039 909 699 469 740 552 681 339
2006 2033 1998 1919 1901 1694 1388 1284 1238 1058 1260 1155 1055 933 792 1036 993 899 920 941 745 625 753 871 1021 866 893 767 184 873 685 869 762 205 689 896 1020 1276 1265 1006 567 659 670
1951 1993 2066 1991 1826 1559 1517 1503 1395 1337 1412 1197 1244 1249 1375 1334 1115 1092 1084 975 681 649 632 400 789 562 908 803 672 697 887 743 685 588 404 1117 1446 1328 1146 1267 1401 1240 924
2017 1932 2023 2045 1884 1765 1668 1668 1644 1628 1573 1527 1417 1543 1418 1393 1391 1126 975 733 595 379 619 487 621 287 227 263 369 307 243 735 731 608 440 778 1064 1232 1575 1233 1560 1530 1283
2125 2080 2066 1991 1878 1888 1995 1902 1923 1845 1682 1530 1631 1677 1711 1523 1180 1084 852 683 212 49 86 159 117 44 49 77 101 94 156 197 338 394 653 773 692 572 1104 1375 1240 871 729
2286 2140 2143 2099 2094 2064 2097 2074 1857 1720 1836 1709 1821 1577 1492 922 767 837 804 444 171 0 0 5 0 0 0 4 35 33 103 204 190 589 771 710 565 725 971 827 935 751 988
2385 2201 2229 2230 2168 2101 2072 2006 1982 2208 2084 1982 2038 1573 1441 1064 762 776 626 724 403 148 14 0 6 0 0 8 6 3 21 49 92 452 398 1193 1010 1077 1220 1436 1016 837 968
2437 2299 2281 2271 2270 2256 2261 2269 2324 2339 2158 2265 2093 1809 1309 1127 454 409 468 903 926 993 510 116 24 1 1 1 8 21 95 82 113 221 543 1240 1209 1054 1334 1500 1413 1070 1115
2385 2306 2414 2388 2401 2330 2201 2220 2248 2064 2189 2225 2133 1556 1216 1112 296 188 361 1066 1096 979 1002 489 334 239 104 37 59 47 28 55 1 0 0 0 8 80 561 1134 1096 1230 993
2473 2346 2425 2506 2497 2407 2406 2481 2315 2190 2067 2064 1891 1442 1258 1223 66 39 80 386 216 818 787 914 310 299 25 0 73 84 35 10 10 0 0 0 0 0 28 170 451 446 486
2667 2420 2319 2579 2662 2684 2694 2496 2377 2230 1968 1868 1737 1560 1211 1145 513 18 18 136 124 211 532 583 344 90 10 0 0 0 0 0 0 0 0 0 2 5 0 0 0 0 0
2858 2750 2566 2549 2624 2595 2312 2125 2200 2086 2098 1780 1676 1593 1304 1227 732 15 0 3 28 114 160 188 301 34 0 0 0 0 0 0 0 0 0 0 0 0 1 1 0 0 7
2911 2528 2364 2778 2723 2259 1872 1901 1689 1563 1464 1776 1449 1318 1044 1012 937 47 0 0 0 59 99 55 6 0 0 0 0 0 0 0 0 0 0 0 0 1 21 28 13 8 0
2350 2131 1994 1967 2180 1485 831 427 959 723 465 222 220 379 458 633 693 75 0 0 0 0 0 0 0 0 0 0 0 0 0 0 0 0 0 0 1 18 25 11 5 7 1
1722 1649 1098 811 488 439 263 31 360 151 31 2 5 11 226 725 472 286 0 0 0 0 0 6 0 0 0 0 0 0 0 0 0 0 0 0 1 5 6 9 8 8 0
551 252 246 263 547 872 873 502 6 0 27 14 15 190 503 292 208 27 0 0 0 0 0 4 7 3 1 2 1 0 0 0 0 0 0 0 0 0 0 3 1 0 0
924 926 677 415 116 264 362 380 116 108 50 0 2 2 8 97 31 0 0 0 0 0 0 0 0 2 7 5 6 0 0 0 0 0 0 0 0 0 0 0 3 0 0
647 140 439 470 236 210 204 164 237 223 388 255 0 0 0 0 0 0 0 0 0 0 0 0 0 0 12 9 7 0 0 0 0 0 0 0 0 0 0 0 1 0 0
949 1067 856 369 295 312 340 359 456 363 215 94 58 0 0 0 0 0 0 0 0 0 0 0 0 0 0 2 0 0 0 0 0 0 0 0 0 0 0 0 0 0 0
515 138 324 256 465 394 289 231 132 80 14 2 5 3 0 0 0 0 1 1 3 0 0 0 0 0 0 0 0 0 0 0 0 1 2 0 0 0 0 0 0 0 0
527 442 173 343 275 197 215 144 77 46 33 3 6 1 0 1 2 0 0 3 4 0 0 0 0 0 1 3 0 0 0 0 0 0 9 31 21 1 0 0 0 0 0
505 469 180 277 272 209 192 161 146 116 100 27 3 0 0 0 3 2 4 5 1 0 0 0 0 0 0 0 0 0 0 0 0 0 15 33 34 12 2 3 0 0 0
112 323 332 283 276 132 221 246 198 115 93 57 3 0 0 1 2 4 3 3 0 0 0 0 0 0 0 0 0 0 0 0 0 1 3 0 9 9 4 2 6 3 5
20 6 13 26 21 35 129 255 231 65 97 150 148 6 8 4 5 3 5 5 8 9 5 1 1 0 0 0 0 0 0 0 0 0 0 0 2 2 0 0 0 4 9
36 13 17 25 17 67 208 188 204 217 168 87 97 215 195 3 3 8 10 11 13 9 3 2 2 0 1 1 1 0 0 0 0 0 0 25 2 3 8 7 1 0 0
0 0 0 1 2 4 10 17 18 19 119 147 254 250 205 110 76 169 222 21 1 23 0 0 0 0 0 0 0 0 0 0 0 0 0 0 0 2 0 8 4 6 2
CIN
-26 -19 -10 -10 -6 -2 -0 -16 -1 -0 -7 -0 -0 -0 -0 -0 -0 -0 -19 -21 -0 -0 -1 -0 -0 -5 -1 -15 -41 -8 -3 -4 -12 -11 -14 -4 -2 -8 -20 -6 -10 -21 -76
-44 -19 -19 -17 -4 -6 -20 -10 -2 -4 -0 -0 -0 -0 -3 -0 -1 -2 -2 -1 -2 -1 -0 -0 -0 -3 -8 -9 -36 -6 -10 -1 -12 -17 -12 -4 -9 -6 -4 -11 -9 -5 -9
-70 -45 -30 -34 -35 -43 -32 -14 -23 -17 -1 -0 -0 -1 -0 -0 -3 -2 -1 -1 -0 -0 -1 -8 -1 -9 -3 -5 -19 -6 -7 -13 -11 -1 -9 -10 -13 -18 -8 -8 -9 -4 -2
-84 -63 -43 -53 -56 -35 -34 -22 -17 -16 -3 -1 -1 -1 -3 -4 -1 -1 -0 -0 -0 -4 -0 -0 -0 -8 -29 -16 -26 -7 -238 -6 -8 -17 -29 -15 -16 -17 -7 -15 -8 -13 -10
-93 -53 -37 -30 -44 -34 -19 -16 -7 -2 -3 -4 -4 -4 -0 -5 -1 -1 -0 -0 -15 -42 -8 -1 -8 -36 -27 -29 -26 -37 -33 -37 -21 -22 -3 -1 -5 -23 -20 -13 -11 -17 -22
-119 -107 -86 -44 -29 -21 -14 -15 -10 -8 -1 -1 -3 -2 -8 -1 -17 -17 -2 -4 -30 -0 -0 -96 -0 -0 -0 -48 -76 -51 -45 -31 -26 -7 -12 -14 -10 -8 -25 -7 -18 -20 -8
-153 -120 -97 -67 -41 -26 -23 -20 -31 -3 -2 -1 -1 -6 -3 -2 -44 -32 -18 -1 -5 -28 -14 -0 -84 -9 -0 -126 -139 -98 -94 -61 -72 -21 -18 -7 -12 -7 -7 -7 -23 -29 -21
-146 -135 -105 -95 -47 -10 -1 -1 -1 -1 -1 -1 -1 -1 -14 -23 -113 -99 -57 -11 -0 -0 -0 -25 -57 -60 -62 -55 -133 -120 -32 -30 -51 -38 -23 -1 -8 -15 -11 -6 -6 -17 -10
-150 -150 -121 -92 -56 -57 -40 -12 -3 -4 -0 -1 -1 -7 -31 -52 -192 -197 -119 -4 -5 -3 -1 -6 -12 -22 -83 -131 -83 -75 -73 -46 -88 -5 -0 -49 -168 -167 -58 -7 -4 -3 -3
-107 -114 -79 -43 -39 -34 -12 -4 -3 -1 -3 -1 -0 -9 -10 -4 -255 -281 -205 -46 -62 -9 -10 -0 -38 -43 -164 -0 -87 -63 -82 -71 -117 -22 -20 -0 -0 -0 -138 -54 -12 -4 -2
-39 -59 -48 -8 -0 -0 -1 -1 -0 -1 -3 -2 -1 -4 -18 -27 -153 -322 -299 -171 -63 -78 -20 -24 -35 -111 -107 -0 -0 -0 -0 -0 -0 -0 -0 -0 -78 -154 -0 -0 -0 -0 -0
-2 -5 -4 -2 -1 -1 -4 -8 -2 -4 -3 -5 -4 -5 -3 -16 -63 -321 -0 -108 -226 -78 -19 -32 -56 -257 -0 -0 -0 -0 -0 -0 -0 -0 -0 -0 -0 -0 -1 -0 -0 -0 -35
-3 -5 -5 -1 -1 -6 -9 -7 -7 -13 -10 -1 -9 -15 -43 -4 -6 -192 -0 -0 -0 -149 -52 -80 -130 -0 -0 -0 -0 -0 -0 -0 -0 -0 -0 -0 -0 -1 -4 -8 -51 -1 -0
-5 -4 -8 -10 -6 -24 -74 -7 -46 -70 -113 -125 -130 -116 -151 -61 -3 -163 -0 -0 -0 -0 -0 -0 -0 -0 -0 -0 -0 -0 -0 -0 -0 -0 -0 -0 -0 -2 -2 -1 -2 -1 -1
-0 -0 -35 -77 -106 -75 -212 -48 -131 -214 -138 -184 -305 -207 -104 -69 -23 -14 -0 -0 -0 -0 -0 -59 -0 -0 -0 -0 -0 -0 -0 -0 -0 -0 -0 -0 -2 -3 -2 -1 -1 -2 -0
-42 -103 -99 -101 -37 -1 -0 -50 -179 -0 -357 -257 -129 -29 -77 -111 -83 -93 -0 -0 -0 -0 -0 -17 -20 -1 -2 -2 -1 -0 -0 -0 -0 -0 -0 -0 -0 -0 -0 -1 -0 -0 -0
-3 -0 -4 -38 -100 -55 -14 -18 -114 -170 -297 -10 -293 -283 -248 -106 -148 -0 -0 -0 -0 -0 -0 -0 -0 -3 -2 -1 -2 -0 -0 -0 -0 -0 -0 -0 -0 -0 -0 -0 -133 -0 -0
-14 -106 -10 -24 -59 -81 -66 -66 -38 -23 -0 -66 -0 -0 -0 -0 -0 -0 -0 -0 -0 -0 -0 -0 -0 -0 -1 -2 -2 -0 -0 -0 -0 -0 -0 -0 -0 -0 -0 -0 -64 -0 -0
-1 -0 -6 -58 -40 -22 -5 -3 -0 -7 -57 -94 -106 -0 -0 -0 -0 -0 -0 -0 -0 -0 -0 -0 -0 -0 -0 -1 -0 -0 -0 -0 -0 -0 -0 -0 -0 -0 -0 -0 -0 -0 -0
-4 -80 -36 -29 -2 -1 -14 -23 -61 -86 -45 -0 -0 -0 -0 -0 -0 -0 -0 -0 -0 -0 -0 -0 -0 -0 -0 -0 -0 -0 -0 -0 -0 -2 -1 -1 -0 -0 -0 -0 -0 -0 -0
-3 -3 -63 -1 -0 -3 -10 -23 -44 -56 -59 -0 -0 -0 -0 -0 -0 -0 -0 -0 -0 -0 -0 -0 -0 -0 -35 -11 -0 -0 -0 -0 -0 -0 -2 -1 -2 -2 -0 -0 -0 -0 -0
-0 -0 -20 -6 -2 -5 -5 -2 -6 -9 -9 -69 -0 -0 -0 -0 -0 -0 -0 -0 -0 -0 -0 -0 -0 -0 -0 -0 -0 -0 -0 -0 -0 -0 -16 -4 -2 -1 -2 -1 -2 -0 -0
-11 -1 -3 -7 -4 -19 -5 -3 -0 -4 -4 -43 -2 -0 -0 -0 -0 -0 -0 -0 -0 -0 -0 -0 -0 -0 -0 -0 -0 -0 -0 -0 -0 -64 -46 -0 -42 -9 -3 -3 -2 -1 -2
-3 -1 -2 -2 -1 -25 -27 -0 -2 -40 -14 -2 -6 -1 -1 -1 -1 -1 -1 -1 -0 -0 -0 -0 -0 -0 -0 -0 -0 -0 -0 -0 -0 -0 -0 -0 -35 -34 -0 -0 -1 -5 -3
-1 -2 -1 -2 -0 -22 -0 -1 -1 -0 -4 -28 -22 -2 -0 -1 -2 -1 -1 -1 -1 -0 -0 -0 -1 -0 -0 -0 -0 -0 -0 -0 -0 -0 -0 -0 -3 -10 -9 -3 -1 -0 -0
-0 -0 -0 -1 -1 -1 -2 -2 -2 -1 -1 -5 -1 -8 -3 -1 -24 -5 -7 -2 -14 -12 -0 -0 -0 -0 -0 -0 -0 -0 -0 -0 -0 -0 -0 -0 -0 -11 -4 -6 -3 -3 -2
Wind_Speed
8 9 9 6 4 4 2 4 8 6 8 10 11 9 10 11 4 14 24 32 32 30 22 7 29 24 22 22 26 28 18 22 4 11 26 20 5 5 8 8 18 9 10
7 7 8 6 6 5 5 6 7 9 9 7 6 8 8 7 5 2 8 23 29 27 20 12 22 16 18 18 23 23 20 18 17 14 10 12 7 3 6 3 4 17 12
9 8 8 6 8 7 6 6 6 5 6 6 5 6 6 9 6 5 6 22 23 24 21 15 20 19 17 20 24 26 7 11 16 20 15 9 8 6 7 6 6 28 17
10 9 8 9 9 10 9 7 4 5 5 5 5 5 5 6 8 6 11 18 20 23 18 11 14 17 18 20 30 33 28 13 10 14 13 13 6 4 9 9 7 8 19
10 9 8 9 9 9 9 9 9 5 5 5 4 5 6 6 7 8 9 13 17 18 15 12 11 14 16 16 23 29 27 22 17 16 14 9 6 7 1 11 4 7 8
11 11 10 10 10 10 8 7 6 5 4 4 4 5 6 6 5 6 9 10 14 16 15 13 10 8 14 16 20 23 25 24 25 21 20 19 20 11 9 4 9 11 10
12 10 10 11 10 10 9 8 6 4 3 3 4 4 5 8 10 7 6 6 8 10 12 13 10 7 5 12 16 24 26 24 23 25 17 14 19 19 15 13 10 5 5
10 10 10 11 10 8 6 6 5 6 4 2 4 3 6 10 11 8 5 5 6 6 7 9 11 9 6 4 6 17 21 19 21 21 24 22 24 17 17 20 16 12 13
6 7 7 9 9 8 7 9 6 3 1 4 6 10 9 10 9 6 5 4 5 7 6 6 6 6 5 4 7 13 17 21 17 18 20 20 19 20 17 14 14 11 12
4 5 5 5 6 7 6 4 3 3 1 4 7 8 10 13 10 8 7 13 13 9 7 5 6 7 4 2 4 9 12 17 19 17 21 21 22 22 22 20 17 11 12
6 5 5 5 5 4 4 3 2 3 1 1 5 8 11 11 12 11 13 16 19 13 12 8 5 7 6 7 12 15 17 19 18 20 20 22 20 20 18 17 19 21 18
9 9 10 9 8 8 8 8 6 4 2 2 5 7 10 12 13 7 8 15 23 21 18 19 9 6 8 9 11 16 17 18 19 17 17 15 13 15 13 10 13 15 17
12 12 11 11 12 13 15 13 12 9 8 7 14 14 15 15 14 11 10 15 21 21 25 22 10 7 8 10 12 14 16 16 16 16 15 15 13 13 12 9 13 16 18
16 16 16 16 16 12 16 32 16 8 8 12 18 20 20 21 17 16 16 17 21 24 22 17 12 14 12 13 10 13 14 14 14 15 15 15 14 11 11 13 15 15 16
18 19 19 19 18 20 24 15 15 18 22 31 35 35 29 21 17 17 14 10 16 21 21 20 17 17 18 16 14 14 14 15 16 17 16 19 16 14 14 13 13 14 16
16 18 18 20 17 17 19 19 20 23 25 31 23 24 22 22 19 17 11 9 11 22 24 23 21 19 21 19 19 18 17 16 17 16 16 14 14 13 13 12 13 14 15
17 17 18 14 15 17 19 23 28 25 18 15 23 28 26 23 15 10 8 9 11 13 19 23 24 22 22 21 21 21 20 19 16 14 13 15 14 14 16 14 16 18 18
16 16 14 12 11 14 16 20 22 24 25 23 21 21 19 19 16 10 10 13 14 12 13 21 25 25 21 19 18 19 18 17 16 15 14 14 15 16 18 18 18 18 17
17 16 15 12 11 10 9 12 14 18 22 22 21 19 19 19 17 14 10 13 17 15 17 19 19 19 19 18 16 15 17 16 16 16 16 14 13 13 15 18 18 17 17
16 16 14 12 11 11 12 13 14 15 16 17 17 18 18 19 18 17 15 15 18 19 22 22 23 20 20 17 15 16 19 20 18 17 16 14 15 15 16 17 17 17 15
19 17 16 13 14 15 14 15 16 17 18 19 19 19 21 23 23 18 13 11 12 14 16 20 26 22 23 19 15 18 20 21 20 19 18 17 18 19 18 19 19 18 20
17 15 15 14 15 16 15 16 15 16 15 17 17 19 18 17 16 15 13 9 8 5 4 4 10 14 17 21 23 22 24 23 23 26 26 21 19 18 21 21 21 22 22
15 14 14 14 15 15 14 14 15 15 17 18 16 16 15 15 15 14 13 10 8 7 4 5 9 11 11 11 15 16 19 23 26 27 28 27 26 25 21 23 25 24 23
15 18 18 17 19 19 19 19 18 18 17 18 17 16 17 15 15 13 12 11 8 7 8 7 8 9 8 8 11 16 17 17 17 21 22 21 22 26 30 29 24 20 18
17 16 16 18 19 18 18 18 17 17 17 18 19 18 18 16 15 15 13 12 11 10 10 9 10 9 9 8 10 11 12 10 11 13 18 19 19 21 17 12 20 24 21
17 18 19 19 20 20 21 20 19 21 20 20 20 18 17 16 17 18 20 16 14 15 14 15 16 14 14 12 14 16 16 15 15 16 22 24 22 20 25 28 27 23 21
Wind_Direction
127 137 143 132 130 143 113 135 153 135 140 150 161 156 163 176 182 300 287 269 272 285 297 294 256 259 254 256 253 252 275 268 316 294 260 248 171 154 159 167 178 177 182
98 110 128 109 111 111 121 120 126 134 137 129 120 141 148 146 145 348 318 298 289 294 296 286 267 265 260 260 257 262 269 280 294 303 335 131 130 285 289 175 159 172 168
96 104 112 94 125 126 119 116 112 105 108 114 103 111 101 135 114 114 4 314 308 299 295 285 269 262 262 259 255 257 255 281 289 280 287 317 312 298 280 289 285 253 276
104 110 107 119 126 130 122 116 91 79 76 73 86 64 70 89 114 92 4 339 319 311 307 301 279 268 266 262 255 256 240 281 293 288 292 291 305 308 285 283 286 282 275
109 109 105 116 116 121 124 122 129 88 47 30 45 53 60 86 93 79 39 11 357 344 337 319 299 282 276 268 267 264 276 276 283 280 283 293 292 289 276 283 277 299 295
124 123 112 125 127 125 117 116 109 84 60 37 27 10 10 63 68 87 51 44 32 20 16 17 350 322 272 265 274 274 273 272 269 276 278 279 281 285 292 285 295 292 295
129 123 120 126 123 124 123 126 127 116 92 57 28 41 45 10 9 42 56 57 50 49 51 39 27 45 318 289 288 267 269 275 277 276 287 291 284 279 282 285 286 281 291
133 133 128 131 131 127 122 128 127 132 123 44 13 44 356 338 346 2 59 115 25 39 56 68 75 60 56 63 310 277 273 283 279 288 284 286 278 292 285 281 284 289 293
155 154 148 146 144 145 149 151 143 127 84 346 335 317 315 318 331 344 9 49 34 31 30 25 48 57 52 59 315 291 283 278 295 301 294 293 295 290 292 296 294 294 295
211 187 176 179 175 168 163 166 165 150 130 320 323 324 314 311 315 312 315 316 320 341 7 8 5 345 5 65 340 316 302 294 291 297 292 289 289 289 286 289 295 297 297
271 257 240 231 224 230 241 250 242 190 177 331 328 317 311 308 314 300 294 297 300 312 313 321 331 326 315 305 301 302 299 297 298 295 293 287 288 285 289 288 286 292 294
271 274 276 271 262 266 261 266 260 259 249 315 322 317 311 309 309 304 289 286 291 294 301 302 305 306 310 300 301 300 300 299 297 299 295 295 293 293 293 291 291 289 306
283 274 272 271 271 281 281 264 268 274 293 316 313 311 306 300 301 301 294 293 285 286 294 300 302 297 304 301 299 302 303 300 296 293 293 293 293 295 299 298 301 297 295
302 297 290 281 281 280 305 282 270 250 260 295 303 311 297 295 294 305 304 294 284 280 288 296 300 299 301 304 296 299 300 298 294 290 290 290 289 291 290 293 292 293 292
316 312 308 306 301 293 292 274 262 285 300 303 299 293 282 281 283 295 304 284 285 277 281 283 287 289 291 292 293 298 297 295 293 289 287 289 286 285 290 289 291 292 293
321 314 308 307 304 302 296 293 286 294 309 314 316 292 276 283 291 295 282 275 296 287 280 276 277 286 284 285 287 290 291 291 290 288 290 289 287 286 287 292 294 292 293
330 325 326 321 320 313 306 299 291 303 312 315 305 291 290 293 300 296 266 274 290 296 280 275 278 282 281 282 284 286 285 286 287 287 288 288 287 289 288 286 290 290 293
343 343 346 358 347 335 321 304 301 301 301 310 315 314 313 307 305 296 277 285 287 278 279 282 281 279 280 280 282 282 283 284 281 282 284 285 287 288 288 287 288 291 293
345 344 355 18 18 9 358 339 330 318 314 316 320 326 325 319 309 301 277 267 277 268 274 277 277 280 276 282 282 281 278 277 278 280 280 279 279 279 284 289 292 293 296
343 347 2 12 16 6 353 350 343 341 338 333 331 332 331 327 321 312 299 280 284 283 286 281 284 284 277 278 277 277 278 279 281 281 283 282 281 283 287 290 291 292 292
326 336 341 353 346 345 347 347 341 337 331 329 330 333 331 329 325 325 322 303 292 293 292 285 279 290 280 282 282 281 282 282 284 285 284 283 285 285 286 290 291 290 291
330 343 346 350 339 335 341 336 337 340 344 343 345 346 350 353 355 353 356 358 350 353 353 310 285 286 283 285 283 285 287 289 290 291 289 288 287 284 286 287 288 288 290
349 359 355 353 353 354 354 350 346 349 343 343 352 355 1 360 2 1 2 11 6 2 0 325 308 307 306 303 297 290 289 295 292 290 286 287 294 288 290 285 284 287 290
355 343 344 344 340 336 341 338 336 338 341 340 345 345 347 351 351 356 1 2 358 349 340 323 315 308 305 300 295 295 295 291 298 288 287 290 285 281 277 278 285 294 297
347 356 354 348 344 351 354 354 353 349 346 345 342 340 341 346 347 347 351 351 346 342 341 337 326 315 304 299 300 302 299 288 290 293 299 296 290 290 292 285 291 292 296
351 351 352 352 351 352 351 353 357 351 349 348 348 349 345 343 339 334 330 331 329 325 326 322 318 315 313 306 296 295 292 291 292 293 292 291 292 290 287 285 287 290 290